Regional Weather Roundup
Issued by NWS

Home | Current Version | Previous Version | Text Only | Print | Product List | Glossary On
Versions: 1 2 3 4 5 6 7 8 9 10 11 12 13 14 15 16 17 18 19 20 21 22 23 24 25 26 27 28 29 30 31 32 33 34 35 36 37 38 39 40 41 42 43 44 45 46 47 48 49 50
000
ASUS43 KDMX 061808
RWRIA

WEATHER ROUNDUP FOR IOWA
NATIONAL WEATHER SERVICE DES MOINES IA
100 PM CDT FRI MAY 06 2016

NOTE: "FAIR" INDICATES FEW OR NO CLOUDS BELOW 12,000 FEET WITH NO
SIGNIFICANT WEATHER AND/OR OBSTRUCTIONS TO VISIBILITY.

* - THESE STATIONS ARE NOT NWS STATIONS...THUS NOT UNDER NWS
QUALITY CONTROL.  THEY ALSO DO NOT REPORT WEATHER SUCH
AS PRECIPITATION OR FOG.

IAZ001>003-012>014-020>022-031>034-043>046-061900-
   NORTHWEST IOWA

CITY           SKY/WX    TMP DP  RH WIND       PRES   REMARKS
CARROLL *      SUNNY     84  41  21 SW24G31   29.94F HX  81
CHEROKEE *     SUNNY     81  48  32 SW18G28   29.91F HX  80
DENISON *      SUNNY     81  45  28 SW15G25   29.93F
LE MARS *      SUNNY     82  52  34 SW23      29.90F HX  81
ORANGE CITY *  SUNNY     82  52  34 SW24G31   29.90F HX  81
SHELDON *      SUNNY     84  48  28 SW23G30   29.87F HX  82
SIOUX CITY     SUNNY     83  52  34 SW18G29   29.92F HX  82
6HR MIN TEMP:  50; 6HR MAX TEMP:  83;

SPENCER        SUNNY     85  47  26 W25G35    29.89F HX  82
6HR MIN TEMP:  54; 6HR MAX TEMP:  85;

STORM LAKE *   SUNNY     82  45  26 SW24G36   29.93F HX  80
$$

IAZ055>058-069>071-079>083-090>094-061900-
   SOUTHWEST IOWA

CITY           SKY/WX    TMP DP  RH WIND       PRES   REMARKS
ATLANTIC *     SUNNY     81  43  26 SW20      29.97F
AUDUBON *        N/A     82  30  15 SW18      29.98F HX  80
CLARINDA *       N/A     79  50  36 MISG      30.02F
COUNCIL BLFS * SUNNY     81  46  30 SW18G28   29.98F HX  80
CRESTON *      SUNNY     79  48  34 SW17G25   30.02F
HARLAN  *      SUNNY     82  43  24 SW17G26   30.00F HX  80
LAMONI         SUNNY     76  52  43 SW13      30.02F
6HR MIN TEMP:  52; 6HR MAX TEMP:  76;

RED OAK *      SUNNY     81  48  32 SW17G24   29.99F HX  80
SHENANDOAH *   SUNNY     82  45  26 SW18G24   30.00F HX  80
$$

IAZ047>049-059>061-072>074-084-061900-
   CENTRAL IOWA

CITY           SKY/WX    TMP DP  RH WIND       PRES   REMARKS
AMES           SUNNY     86  41  20 SW21G29   29.95F HX  83
6HR MIN TEMP:  47; 6HR MAX TEMP:  86;

ANKENY *       SUNNY     82  48  30 W12G18    29.96F HX  81
BOONE *        SUNNY     84  39  20 SW20      29.93F HX  81
CHARITON *     SUNNY     79  48  34 SW14G22   30.00F
DES MOINES     MOSUNNY   84  44  24 SW17      29.97F HX  82
6HR MIN TEMP:  53; 6HR MAX TEMP:  84;

GRINNELL*      SUNNY     81  46  30 W13G20    29.97F HX  80
KNOXVILLE *    SUNNY     81  48  32 SW14G20   29.97F HX  80
MARSHALLTOWN   SUNNY     82  48  30 SW16G26   29.93F HX  81
6HR MIN TEMP:  50; 6HR MAX TEMP:  82;

NEWTON *       SUNNY     82  45  26 SW17G23   29.96F HX  80
PELLA *        SUNNY     81  46  30 W12G17    29.98F HX  80
PERRY *          N/A     84  39  20 SW22G28   29.96F HX  81
$$

IAZ004>006-015-016-023>025-035-036-061900-
   NORTH CENTRAL IOWA

CITY           SKY/WX    TMP DP  RH WIND       PRES   REMARKS
ALGONA *       SUNNY     86  39  19 SW25G36   29.90F HX  83
CLARION *      SUNNY     86  37  17 SW20G29   29.91F HX  83
ESTHERVILLE    SUNNY     83  46  27 SW29G38   29.87F HX  81
6HR MIN TEMP:  54; 6HR MAX TEMP:  83;

FORT DODGE *   SUNNY     82  45  26 SW17G25   29.93F HX  80
MASON CITY     SUNNY     85  41  21 SW16G25   29.90F HX  82
6HR MIN TEMP:  58; 6HR MAX TEMP:  85;

FOREST CITY *  SUNNY     82  39  21 SW20G25   29.89F HX  80
WEBSTER CITY * SUNNY     86  37  17 SW24G31   29.91F HX  83
IOWA FALLS *     N/A     86  41  20 SW21G28   29.93F HX  83
$$

IAZ007>011-017>019-026>030-037>042-050>054-066-061900-
   NORTHEAST IOWA

CITY           SKY/WX    TMP DP  RH WIND       PRES   REMARKS
CEDAR RAPIDS   SUNNY     82  51  34 SW15G23   29.93F HX  81
6HR MIN TEMP:  50; 6HR MAX TEMP:  82;

CHARLES CITY * SUNNY     88  36  15 W21G28    29.90F HX  84
CLINTON *      SUNNY     78  51  38 W14       29.94F
DECORAH *      SUNNY     84  39  20 W13G28    29.88F HX  81
DUBUQUE        SUNNY     77  49  37 SW10      29.93F
6HR MIN TEMP:  49; 6HR MAX TEMP:  78;

MONTICELLO *   SUNNY     82  48  30 SW8G20    29.92F HX  81
OELWEIN *      SUNNY     84  43  23 W20       29.91F HX  82
WATERLOO       SUNNY     85  43  22 W18       29.90F HX  82
6HR MIN TEMP:  52; 6HR MAX TEMP:  85;

$$

IAZ064-065-067-068-078-061900-
   EAST CENTRAL IOWA

CITY           SKY/WX    TMP DP  RH WIND       PRES   REMARKS
DAVENPORT      SUNNY     80  44  27 W15       29.96F
6HR MIN TEMP:  51; 6HR MAX TEMP:  80;

IOWA CITY      SUNNY     81  50  33 W15       29.95F HX  80
6HR MIN TEMP:  48; 6HR MAX TEMP:  81;

MT. PLEASANT * SUNNY     82  45  27 SW14      29.98F HX  80
MUSCATINE *    SUNNY     81  50  34 W10       29.95F HX  80
QUAD CITIES    SUNNY     79  48  33 W12       29.95F
6HR MIN TEMP:  47; 6HR MAX TEMP:  79;

$$

IAZ062-063-075>077-085>089-095>099-061900-
   SOUTHEAST IOWA

CITY           SKY/WX    TMP DP  RH WIND       PRES   REMARKS
BURLINGTON     SUNNY     78  49  35 W9        29.98F
6HR MIN TEMP:  49; 6HR MAX TEMP:  78;

FAIRFIELD *    SUNNY     81  45  28 W14       29.97F
FORT MADISON * SUNNY     79  48  34 SW7       30.00F
KEOKUK *       SUNNY     77  48  36 W9        29.99F
OSKALOOSA *      N/A     81  44  27 W14G21    29.98F HX  80
OTTUMWA        SUNNY     80  50  34 W13       29.98F HX  80
6HR MIN TEMP:  52; 6HR MAX TEMP:  80;

WASHINGTON *   SUNNY     81  46  30 W10G16    29.97F HX  80
$$

ABBREVIATIONS USED IN REMARKS
   TC - TEMPERATURES IN CELSIUS
  WCI - WIND CHILL INDEX
   HX - HEAT INDEX
  VSB - VISIBILITY
$$




USA.gov is the U.S. government's official web portal to all federal, state and local government web resources and services.